K3RTA-2 Weather Reports


time (UTC)temp
C
wind
direction
speed
KPH
gust
KPH
rain 1hr
cm
rain 24hr
cm
rain mn
cm
humidity
%
barometer
mb
20240418180504 18 12 6.4 14.5 0.00 0.00 0.00 80 1016.3
20240418180005 18 352 6.4 19.3 0.00 0.00 0.00 80 1016.3
20240418175504 18 344 4.8 14.5 0.00 0.00 0.00 79 1016.2
20240418175004 18 6 8.0 19.3 0.00 0.00 0.00 80 1016.2
20240418174504 17 358 8.0 14.5 0.00 0.00 0.00 80 1016.2
20240418174004 17 12 9.7 16.1 0.00 0.00 0.00 80 1016.3
20240418172504 17 18 6.4 14.5 0.00 0.00 0.00 81 1016.2
20240418172004 17 10 8.0 12.9 0.00 0.00 0.00 82 1016.2
20240418171004 17 346 9.7 19.3 0.00 0.00 0.00 81 1016.3
20240418170505 17 351 8.0 19.3 0.00 0.00 0.00 82 1016.2
20240418165504 17 355 6.4 14.5 0.00 0.00 0.00 82 1016.3
20240418165004 17 354 8.0 16.1 0.00 0.00 0.00 83 1016.2
20240418164505 17 344 8.0 12.9 0.00 0.00 0.00 82 1016.2
20240418163505 17 350 6.4 14.5 0.00 0.00 0.00 84 1016.0
20240418163004 17 351 8.0 16.1 0.00 0.00 0.00 83 1015.9
20240418162503 16 354 6.4 14.5 0.00 0.00 0.00 84 1015.8
20240418162004 16 343 8.0 14.5 0.00 0.00 0.00 83 1015.9
20240418161004 16 339 8.0 16.1 0.00 0.00 0.00 84 1015.7
20240418160505 16 337 8.0 14.5 0.00 0.00 0.00 85 1015.8
20240418160004 16 351 4.8 11.3 0.00 0.00 0.00 85 1015.8
20240418155004 16 15 6.4 12.9 0.00 0.00 0.00 87 1015.8
20240418154504 15 347 8.0 12.9 0.00 0.00 0.00 87 1015.7
20240418154003 15 322 8.0 12.9 0.00 0.00 0.00 86 1015.8
20240418153004 15 329 6.4 12.9 0.00 0.00 0.00 87 1015.8
20240418152504 15 10 9.7 16.1 0.00 0.00 0.00 88 1015.8
20240418152004 15 18 4.8 11.3 0.00 0.00 0.00 88 1015.8
20240418151504 15 332 4.8 11.3 0.00 0.00 0.00 89 1015.8
20240418150504 15 335 3.2 8.0 0.00 0.00 0.00 91 1015.7
20240418150003 14 5 8.0 11.3 0.00 0.00 0.00 92 1015.7
20240418145505 13 2 6.4 14.5 0.00 0.00 0.00 93 1015.7
20240418145005 13 350 8.0 14.5 0.00 0.00 0.00 93 1015.7
20240418144504 13 342 8.0 16.1 0.00 0.00 0.00 93 1015.7
20240418144004 13 329 8.0 14.5 0.00 0.00 0.00 94 1015.7
20240418143504 13 340 6.4 14.5 0.00 0.00 0.00 95 1015.6
20240418143004 13 337 4.8 14.5 0.00 0.00 0.00 95 1015.6
20240418142503 13 350 8.0 16.1 0.00 0.00 0.00 95 1015.6
20240418141503 12 11 9.7 14.5 0.00 0.00 0.00 96 1015.6
20240418141005 12 334 4.8 14.5 0.00 0.00 0.00 96 1015.5
20240418140505 12 2 4.8 11.3 0.00 0.00 0.00 97 1015.5
20240418135503 12 10 9.7 19.3 0.00 0.00 0.00 98 1015.3
20240418135005 12 8 9.7 14.5 0.00 0.00 0.00 98 1015.4
20240418134503 12 345 8.0 19.3 0.00 0.00 0.00 98 1015.2
20240418134004 12 331 8.0 12.9 0.00 0.00 0.00 99 1015.1
20240418133504 12 8 4.8 14.5 0.00 0.00 0.00 99 1015.0
20240418133004 12 347 8.0 12.9 0.00 0.00 0.00 99 1015.0
20240418132505 12 354 6.4 14.5 0.00 0.00 0.00 99 1014.9
20240418132003 12 336 4.8 11.3 0.00 0.00 0.00 99 1015.1
20240418131504 12 342 4.8 14.5 0.00 0.00 0.00 99 1015.1
20240418131004 12 340 3.2 8.0 0.00 0.00 0.00 100 1014.9
20240418130004 12 342 8.0 11.3 0.00 0.00 0.00 99 1014.9
20240418125505 12 326 4.8 11.3 0.00 0.00 0.00 100 1014.9
20240418125003 12 356 4.8 9.7 0.00 0.00 0.00 100 1014.9
20240418124505 12 319 6.4 11.3 0.00 0.00 0.00 100 1014.9
20240418124004 12 341 3.2 9.7 0.00 0.00 0.00 100 1014.9
20240418123504 12 349 6.4 12.9 0.00 0.00 0.00 100 1014.9
20240418123004 12 8 3.2 9.7 0.00 0.00 0.00 100 1015.0
20240418122503 12 325 3.2 11.3 0.00 0.00 0.00 99 1014.9
20240418122004 12 344 3.2 9.7 0.00 0.00 0.00 100 1014.8
20240418121505 12 339 3.2 9.7 0.00 0.00 0.00 99 1014.8
20240418120505 12 320 3.2 14.5 0.00 0.00 0.00 99 1014.6
20240418115003 12 341 3.2 9.7 0.00 0.00 0.00 99 1014.4
20240418114504 12 331 4.8 12.9 0.00 0.00 0.00 99 1014.2
20240418114004 12 339 3.2 11.3 0.00 0.00 0.00 99 1014.1
20240418113503 12 334 3.2 8.0 0.00 0.00 0.00 100 1014.1
20240418113005 12 344 3.2 9.7 0.00 0.00 0.00 99 1014.1
20240418112504 12 334 3.2 9.7 0.00 0.00 0.00 100 1013.9
20240418112004 12 349 3.2 8.0 0.00 0.00 0.00 100 1014.0
20240418111504 12 328 3.2 8.0 0.00 0.00 0.00 100 1013.9
20240418111004 12 337 4.8 9.7 0.00 0.00 0.00 99 1013.6
20240418110504 12 348 4.8 8.0 0.00 0.00 0.00 99 1013.7
20240418110004 12 334 4.8 12.9 0.00 0.00 0.00 100 1013.6
20240418105505 13 345 3.2 4.8 0.00 0.00 0.00 100 1013.4
20240418105004 12 333 1.6 4.8 0.00 0.00 0.00 100 1013.4
20240418104504 12 326 0.0 4.8 0.00 0.00 0.00 99 1013.3
20240418104003 12 335 0.0 1.6 0.00 0.00 0.00 99 1013.1
20240418103504 12 6 0.0 3.2 0.00 0.00 0.00 99 1013.0
20240418103005 12 12 3.2 4.8 0.00 0.00 0.00 99 1012.8
20240418102004 12 346 3.2 9.7 0.00 0.00 0.00 99 1012.8
20240418101004 13 10 4.8 9.7 0.00 0.00 0.00 99 1012.4
20240418100504 13 331 1.6 4.8 0.00 0.00 0.00 99 1012.3
20240418100005 13 345 4.8 8.0 0.00 0.00 0.00 99 1012.0
20240418095503 13 0 3.2 8.0 0.00 0.00 0.00 99 1012.0
20240418095004 13 348 1.6 8.0 0.00 0.00 0.00 99 1012.0
20240418094504 13 345 4.8 8.0 0.00 0.00 0.00 99 1012.0
20240418094003 13 4 4.8 8.0 0.00 0.00 0.00 99 1012.0
20240418093504 13 345 3.2 8.0 0.00 0.00 0.00 99 1011.9
20240418092504 13 10 3.2 11.3 0.00 0.00 0.00 99 1012.0
20240418092004 13 335 4.8 14.5 0.00 0.00 0.00 99 1012.1
20240418091504 13 337 4.8 16.1 0.00 0.00 0.00 99 1012.1
20240418091004 13 0 4.8 12.9 0.00 0.00 0.00 99 1012.0
20240418090505 12 338 8.0 16.1 0.00 0.00 0.00 99 1012.1
20240418090003 12 338 4.8 11.3 0.00 0.00 0.00 99 1011.9
20240418085003 12 15 8.0 14.5 0.00 0.00 0.00 99 1011.7
20240418084505 12 353 8.0 12.9 0.00 0.00 0.00 99 1011.7
20240418084004 12 341 4.8 16.1 0.00 0.00 0.00 99 1011.6
20240418082504 12 359 4.8 9.7 0.00 0.00 0.00 99 1011.2
20240418082004 12 359 4.8 8.0 0.00 0.00 0.00 99 1011.1
20240418081504 12 0 4.8 9.7 0.00 0.00 0.00 99 1011.1
20240418081004 12 348 4.8 12.9 0.00 0.00 0.00 99 1011.2
20240418080004 12 341 6.4 11.3 0.00 0.00 0.00 98 1011.0
20240418075505 12 338 4.8 11.3 0.00 0.00 0.00 98 1011.0
20240418075003 12 352 3.2 8.0 0.00 0.00 0.00 98 1010.9
20240418074505 12 346 3.2 4.8 0.00 0.00 0.00 98 1010.8
20240418073505 12 6 3.2 4.8 0.00 0.00 0.00 98 1010.6
20240418073004 12 149 0.0 0.0 0.00 0.00 0.00 98 1010.5
20240418072004 12 149 0.0 0.0 0.00 0.00 0.00 98 1010.5
20240418071504 12 149 0.0 0.0 0.00 0.00 0.00 98 1010.6
20240418071004 12 149 0.0 0.0 0.00 0.00 0.00 98 1010.5
20240418070504 12 149 0.0 0.0 0.00 0.00 0.00 98 1010.6
20240418065004 12 149 0.0 0.0 0.00 0.00 0.00 98 1010.5
20240418064503 12 149 0.0 0.0 0.00 0.00 0.00 98 1010.7
20240418063505 13 149 0.0 0.0 0.00 0.00 0.00 98 1010.7
20240418063004 13 149 0.0 0.0 0.00 0.00 0.00 98 1010.7
20240418062003 13 149 0.0 0.0 0.00 0.00 0.00 98 1010.7
20240418061005 13 149 0.0 0.0 0.00 0.00 0.00 97 1010.8
20240418060503 13 149 0.0 0.0 0.00 0.00 0.00 97 1010.8
20240418060004 13 149 0.0 0.0 0.00 0.00 0.00 97 1010.8
20240418055505 13 149 0.0 0.0 0.00 0.00 0.00 97 1011.0
20240418054505 13 149 0.0 0.0 0.00 0.00 0.00 97 1011.2
20240418054005 13 149 0.0 0.0 0.00 0.00 0.00 97 1011.2
20240418053505 13 149 0.0 0.0 0.00 0.00 0.00 97 1011.2
20240418052004 14 149 0.0 0.0 0.00 0.00 0.00 97 1011.3
20240418051503 14 149 0.0 0.0 0.00 0.00 0.00 97 1011.3
20240418051004 14 149 0.0 1.6 0.00 0.00 0.00 97 1011.3
20240418050503 15 214 0.0 0.0 0.00 0.00 0.00 97 1011.4
20240418050004 15 214 0.0 3.2 0.00 0.00 0.00 97 1011.5
20240418045504 15 30 1.6 11.3 0.00 0.00 0.00 97 1011.4
20240418045004 14 224 0.0 0.0 0.00 0.00 0.00 97 1011.7
20240418044505 14 143 0.0 0.0 0.00 0.00 0.00 97 1011.8
20240418044004 14 143 0.0 0.0 0.00 0.00 0.00 97 1011.9
20240418043004 14 143 0.0 0.0 0.00 0.00 0.00 97 1012.1
20240418042504 15 160 0.0 0.0 0.00 0.00 0.00 97 1012.2
20240418042005 15 160 0.0 0.0 0.00 0.00 0.00 97 1012.1
20240418041505 15 160 0.0 0.0 0.00 0.00 0.00 97 1012.1
20240418041003 15 160 0.0 0.0 0.00 0.00 0.00 97 1012.2
20240418040503 15 160 0.0 0.0 0.00 0.00 0.00 97 1012.3
20240418040004 15 160 0.0 0.0 0.00 0.00 0.00 97 1012.3
20240418035504 15 160 0.0 1.6 0.00 0.00 0.00 97 1012.3
20240418035004 15 161 0.0 0.0 0.00 0.00 0.00 97 1012.3
20240418034505 14 161 0.0 0.0 0.00 0.00 0.00 96 1012.2
20240418034004 15 161 0.0 0.0 0.00 0.00 0.00 97 1012.0
20240418033004 14 139 0.0 1.6 0.00 0.00 0.00 97 1012.1
20240418032503 14 146 0.0 0.0 0.00 0.00 0.00 96 1012.2
20240418032005 14 146 0.0 1.6 0.00 0.00 0.00 96 1012.2
20240418031503 14 146 0.0 1.6 0.00 0.00 0.00 96 1012.3
20240418031004 15 146 0.0 0.0 0.00 0.00 0.00 96 1012.3
20240418030504 15 157 0.0 0.0 0.00 0.00 0.00 96 1012.4
20240418030004 15 157 0.0 0.0 0.00 0.00 0.00 96 1012.5
20240418025504 15 165 0.0 0.0 0.00 0.00 0.00 96 1012.5
20240418025005 15 164 0.0 1.6 0.00 0.00 0.00 96 1012.7
20240418024505 15 27 0.0 1.6 0.00 0.00 0.00 96 1012.8
20240418024004 15 7 0.0 0.0 0.00 0.00 0.00 96 1013.0
20240418023504 15 7 0.0 1.6 0.00 0.00 0.00 96 1013.1
20240418023005 15 6 0.0 0.0 0.00 0.00 0.00 96 1013.2
20240418022505 15 6 0.0 1.6 0.00 0.00 0.00 95 1013.4
20240418021004 15 8 0.0 0.0 0.00 0.00 0.00 95 1013.5
20240418020504 15 8 0.0 0.0 0.00 0.00 0.00 95 1013.4
20240418015504 15 8 0.0 0.0 0.00 0.00 0.00 95 1013.8
20240418015004 15 8 0.0 0.0 0.00 0.00 0.00 95 1013.7
20240418014504 15 8 0.0 0.0 0.00 0.00 0.00 95 1013.6
20240418013503 15 23 0.0 0.0 0.00 0.00 0.00 95 1013.6
20240418013005 15 23 0.0 1.6 0.00 0.00 0.00 95 1013.4
20240418012503 15 23 1.6 1.6 0.00 0.00 0.00 95 1013.5
20240418012004 15 275 0.0 0.0 0.00 0.00 0.00 95 1013.7
20240418011503 15 275 0.0 0.0 0.00 0.00 0.00 95 1013.6
20240418011004 15 275 0.0 0.0 0.00 0.00 0.00 95 1013.5
20240418005004 15 275 0.0 0.0 0.00 0.00 0.00 95 1013.0
20240418004504 15 264 0.0 1.6 0.00 0.00 0.00 95 1013.1
20240418004003 15 205 1.6 4.8 0.00 0.00 0.00 95 1012.8
20240418003504 15 131 1.6 9.7 0.00 0.00 0.00 95 1012.5
20240418003005 15 162 1.6 4.8 0.00 0.00 0.00 95 1012.7
20240418002504 14 138 3.2 4.8 0.00 0.00 0.00 94 1012.7
20240418002004 14 138 1.6 4.8 0.00 0.00 0.00 94 1012.8
20240418001504 14 136 1.6 4.8 0.00 0.00 0.00 94 1012.7
20240418001005 14 133 4.8 8.0 0.00 0.00 0.00 94 1012.7
20240418000504 14 128 1.6 4.8 0.00 0.00 0.00 94 1012.8
20240418000004 14 136 1.6 4.8 0.00 0.00 0.00 93 1012.8
20240417235504 14 98 1.6 4.8 0.00 0.00 0.00 93 1012.9
20240417235005 14 142 3.2 9.7 0.00 0.00 0.00 93 1012.9
20240417234504 14 119 1.6 4.8 0.00 0.00 0.00 93 1013.0
20240417234004 14 127 1.6 4.8 0.00 0.00 0.00 92 1013.2
20240417233504 14 113 0.0 1.6 0.00 0.00 0.00 92 1013.4
20240417233004 14 134 1.6 3.2 0.00 0.00 0.00 92 1013.3
20240417232504 14 130 1.6 4.8 0.00 0.00 0.00 92 1013.3
20240417232004 14 148 0.0 1.6 0.00 0.00 0.00 92 1013.3
20240417231504 14 124 0.0 4.8 0.00 0.00 0.00 91 1013.2
20240417231004 14 114 1.6 3.2 0.00 0.00 0.00 91 1013.1
20240417230503 14 117 1.6 8.0 0.00 0.00 0.00 91 1013.0
20240417230004 14 100 1.6 12.9 0.00 0.00 0.00 91 1013.2
20240417225503 14 115 3.2 4.8 0.00 0.00 0.00 90 1013.4
20240417225004 14 144 1.6 4.8 0.00 0.00 0.00 90 1013.5
20240417224004 14 134 1.6 16.1 0.00 0.00 0.00 90 1013.2
20240417223504 14 136 6.4 19.3 0.00 0.00 0.00 89 1013.0
20240417223004 14 153 6.4 19.3 0.00 0.00 0.00 89 1013.2
20240417222504 14 127 9.7 14.5 0.00 0.00 0.00 89 1013.2
20240417222003 14 122 3.2 12.9 0.00 0.00 0.00 88 1013.7
20240417221504 14 132 3.2 11.3 0.00 0.00 0.00 88 1014.3
20240417221004 14 127 8.0 14.5 0.00 0.00 0.00 88 1014.5
20240417215503 15 132 4.8 14.5 0.00 0.00 0.00 88 1014.6
20240417215004 15 131 8.0 19.3 0.00 0.00 0.00 87 1014.7
20240417214005 15 135 3.2 11.3 0.00 0.00 0.00 87 1015.1
20240417213505 15 119 4.8 12.9 0.00 0.00 0.00 87 1015.2
20240417211504 16 130 4.8 12.9 0.00 0.00 0.00 87 1014.9
20240417211004 16 171 4.8 11.3 0.00 0.00 0.00 87 1014.8
20240417210503 16 125 9.7 19.3 0.00 0.00 0.00 87 1014.9
20240417210004 16 131 8.0 16.1 0.00 0.00 0.00 87 1015.1
20240417205504 16 140 8.0 19.3 0.00 0.00 0.00 87 1015.0
20240417205003 16 115 9.7 22.5 0.00 0.00 0.00 86 1014.6
20240417204504 16 104 8.0 20.9 0.00 0.00 0.00 86 1014.8
20240417204004 17 111 9.7 12.9 0.00 0.00 0.00 85 1014.8
20240417203504 17 133 4.8 9.7 0.00 0.00 0.00 85 1015.4
20240417203004 17 99 4.8 11.3 0.00 0.00 0.00 85 1015.4
20240417202504 17 114 11.3 16.1 0.00 0.00 0.00 84 1015.4
20240417201505 18 117 8.0 16.1 0.00 0.00 0.00 82 1015.2
20240417201004 18 87 4.8 11.3 0.00 0.00 0.00 81 1015.4
20240417200504 18 133 9.7 19.3 0.00 0.00 0.00 80 1015.2
20240417200004 19 128 9.7 22.5 0.00 0.00 0.00 79 1015.2
20240417195003 20 97 6.4 16.1 0.00 0.00 0.00 78 1015.2
20240417194506 20 135 3.2 11.3 0.00 0.00 0.00 79 1015.4
20240417194005 20 63 4.8 12.9 0.00 0.00 0.00 78 1015.5
20240417193504 20 70 4.8 12.9 0.00 0.00 0.00 78 1015.7
20240417193004 20 60 6.4 11.3 0.00 0.00 0.00 79 1015.8
20240417192504 20 83 8.0 19.3 0.00 0.00 0.00 79 1015.8
20240417191505 20 29 1.6 4.8 0.00 0.00 0.00 81 1015.8
20240417191005 20 26 3.2 9.7 0.00 0.00 0.00 81 1015.8
20240417190004 19 14 3.2 4.8 0.00 0.00 0.00 79 1016.0
20240417185504 19 22 3.2 9.7 0.00 0.00 0.00 79 1016.5
20240417185004 19 350 1.6 4.8 0.00 0.00 0.00 79 1016.7
20240417184004 20 348 3.2 8.0 0.00 0.00 0.00 79 1017.1
20240417183503 20 354 3.2 8.0 0.00 0.00 0.00 80 1017.0
20240417183004 20 323 3.2 4.8 0.00 0.00 0.00 81 1017.1
20240417182503 20 4 3.2 4.8 0.00 0.00 0.00 81 1017.1
20240417182004 20 334 4.8 9.7 0.00 0.00 0.00 81 1017.1
20240417181504 20 359 3.2 8.0 0.00 0.00 0.00 81 1017.1
20240417181004 21 8 3.2 4.8 0.00 0.00 0.00 79 1017.2